Regional Weather Roundup
Issued by NWS

Home | Current Version | Previous Version | Text Only | Print | Product List | Glossary On
Versions: 1 2 3 4 5 6 7 8 9 10 11 12 13 14 15 16 17 18 19 20 21 22 23 24 25 26 27
000
ASUS45 KCYS 280810
RWRWY

WYOMING REGIONAL WEATHER ROUNDUP
NATIONAL WEATHER SERVICE CHEYENNE WY
200 AM MDT WED SEP 28 2016

NOTE:  "FAIR" INDICATES FEW OR NO CLOUDS BELOW 12,000 FEET
WITH NO SIGNIFICANT WEATHER AND/OR OBSTRUCTIONS TO VISIBILITY.

WYZ001-280900-
YELLOWSTONE NATIONAL PARK

CITY           SKY/WX    TMP DP  RH WIND       PRES   REMARKS
LK YELLOWSTONE   N/A     34  33  96 CALM      30.41S
W YELLOWSTONE  NOT AVBL

$$
WYZ002>013-054>058-071-098>099-280900-
NORTHERN WYOMING

CITY           SKY/WX    TMP DP  RH WIND       PRES   REMARKS
JACKSON        FAIR      43  37  81 CALM      30.33R
CODY           FAIR      57  41  54 SW6       30.25S
GREYBULL       FAIR      53  48  83 SE3       30.19R
WORLAND        FAIR      49  44  83 S7        30.20R
SHERIDAN       FAIR      48  41  76 W3        30.19R
BUFFALO        FAIR      55  37  50 W9        30.25R
GILLETTE       FAIR      49  44  83 S6        30.20R
HULETT         FAIR      48  41  76 S8        30.20R
NEWCASTLE      FAIR      50  39  66 NE3       30.20R

$$
WYZ014>020-022>026-101>103-280900-
CENTRAL WYOMING

CITY           SKY/WX    TMP DP  RH WIND       PRES   REMARKS
BIG PINEY      FAIR      41  34  76 E7        30.35R
PINEDALE       FAIR      34  32  93 W6        30.36R WCI  29
DUBOIS         FAIR      43  32  65 NW10      30.37R
LANDER         FAIR      52  39  61 S5        30.27R
RIVERTON       FAIR      52  42  69 NW10      30.28R
CASPER         FAIR      40  37  89 W3        30.27R
DOUGLAS        FAIR      45  38  76 NW5       30.25R

$$
WYZ021-027>030-104>119-280900-
SOUTHERN WYOMING

CITY           SKY/WX    TMP DP  RH WIND       PRES   REMARKS
EVANSTON       FAIR      53  37  54 SE6       30.32S
FORT BRIDGER   FAIR      54  37  51 W7        30.34S
ROCK SPRINGS   FAIR      52  37  56 E5        30.31S
DIXON          FAIR      48  35  58 NE6       30.34R
RAWLINS        FAIR      40  29  64 CALM      30.33R
SARATOGA       FAIR      41  32  70 CALM      30.35S
LARAMIE        FAIR      37  32  82 S8        30.36R WCI  31
CHEYENNE       FAIR      49  30  48 W12       30.29R
TORRINGTON     FAIR      53  39  59 NW8       30.17R
PINE BLUFFS    FAIR      41  34  75 W5        30.24R

$$




USA.gov is the U.S. government's official web portal to all federal, state and local government web resources and services.